Tracking 28790 objects as of 18-Apr-2024
HD Live streaming from Space Station
objects crossing your sky now

COSMOS 1275 DEB

Track COSMOS 1275 DEB now!
10-day predictions


NORAD ID: 39941
Int'l Code: 1981-053NH
Perigee: 887.7 km
Apogee: 1,035.8 km
Inclination: 83.0 °
Period: 104.2 minutes
Semi major axis: 7332 km
RCS: 0.0117 m2 (small)
Launch date: April 25, 1981
Source: Commonwealth of Independent States (former USSR) (CIS)
Launch site: PLESETSK MISSILE AND SPACE COMPLEX (PKMTR)

Note: This is SATELLITE DEBRIS
Your satellite tracking list
Your tracking list is empty




NASA's NSSDC Master Catalog

Two Line Element Set (TLE):
1 39941U 81053NB  24108.07158908  .00003452  00000-0  30474-2 0  9990
2 39941  83.0229  13.3183 0100986 260.3127  98.6615 13.82614487497757
Source of the keplerian elements: AFSPC